Weather History for Hartford, CT

Change the Weather History Date:

Tuesday, October 1, 2013

  Actual Average Record
Temperature  
Mean Temperature 62 °F -  
Max Temperature 80 °F 68 °F 89 °F (1927)
Min Temperature 46 °F 45 °F 34 °F (1925)
Degree Days  
Heating Degree Days 2    
Growing Degree Days 12 (Base 50)    
Moisture  
Dew Point 51 °F    
Average Humidity 88    
Maximum Humidity 100    
Minimum Humidity 42    
Precipitation  
Precipitation 0.01 in - - ()
Sea Level Pressure  
Sea Level Pressure 29.96 in    
Wind  
Wind Speed 0 mph (SW)    
Max Wind Speed 10 mph    
Max Gust Speed 17 mph    
Visibility 5 miles    
Events Fog    
Averages and records for this station are not official NWS values.
T = Trace of Precipitation, MM = Missing Value Source: NWS Daily Summary

Daily Weather History Graph

Daily Weather History Graph

Search for Another Location

Airport:

Trip Planner

Search our weather history database for the weather conditions in past years. The results will help you decide how hot, cold, wet, or windy it might be!

Date:

Astronomy

Oct. 01, 2013 Rise Set
Actual Time 6:47 AM EDT 6:31 PM EDT
Civil Twilight 6:19 AM EDT 6:59 PM EDT
Nautical Twilight 5:47 AM EDT 7:31 PM EDT
Astronomical Twilight 5:15 AM EDT 8:04 PM EDT
Moon 3:16 AM EDT (10/1) 4:36 PM EDT (10/1)
Length of Visible Light 12h 39m
Length of Day
11h 44m
Waning Crescent, 12% of the Moon is Illuminated
Oct 1
Waning Crescent
Oct 4
New
Oct 11
First Quarter
Oct 18
Full
Oct 26
Last Quarter

Hourly Weather History & Observations

Time (EDT) Temp. Dew Point Humidity Pressure Visibility Wind Dir Wind Speed Gust Speed Precip Events Conditions
12:14 AM 51.8 °F 51.8 °F 100% 29.98 in 2.0 mi Calm Calm - N/A   Clear
12:23 AM 53.6 °F 51.8 °F 94% 29.98 in 5.0 mi Calm Calm - N/A   Clear
12:39 AM 53.6 °F 51.8 °F 94% 29.98 in 2.0 mi Calm Calm - N/A   Clear
12:48 AM 53.6 °F 51.8 °F 94% 29.97 in 6.0 mi Calm Calm - N/A   Clear
12:53 AM 53.1 °F 51.1 °F 93% 29.98 in 9.0 mi Calm Calm - N/A   Clear
1:03 AM 51.8 °F 50.0 °F 94% 29.98 in 0.8 mi Calm Calm - N/A   Clear
1:21 AM 51.8 °F 51.8 °F 100% 29.98 in 0.2 mi Calm Calm - N/A Fog Fog
1:30 AM 51.8 °F 51.8 °F 100% 29.98 in 2.5 mi Calm Calm - N/A   Partly Cloudy
1:37 AM 51.8 °F 50.0 °F 94% 29.98 in 9.0 mi Calm Calm - N/A   Partly Cloudy
1:53 AM 51.1 °F 51.1 °F 100% 29.98 in 5.0 mi Calm Calm - N/A   Partly Cloudy
2:50 AM 48.2 °F 48.2 °F 100% 29.97 in 1.2 mi Calm Calm - N/A   Partly Cloudy
2:53 AM 48.9 °F 48.0 °F 97% 29.98 in 0.5 mi Calm Calm - N/A Fog Fog
3:34 AM 48.2 °F 48.2 °F 100% 29.97 in 2.0 mi Calm Calm - N/A   Mostly Cloudy
3:39 AM 48.2 °F 48.2 °F 100% 29.97 in 4.0 mi Calm Calm - N/A   Scattered Clouds
3:50 AM 50.0 °F 48.2 °F 94% 29.97 in 1.8 mi Calm Calm - N/A   Partly Cloudy
3:53 AM 48.9 °F 48.9 °F 100% 29.97 in 1.2 mi Calm Calm - N/A   Partly Cloudy
4:11 AM 48.2 °F 48.2 °F 100% 29.98 in 0.8 mi Calm Calm - N/A   Mist
4:21 AM 48.2 °F 48.2 °F 100% 29.97 in 2.0 mi Calm Calm - N/A   Mostly Cloudy
4:27 AM 48.2 °F 46.4 °F 93% 29.97 in 0.8 mi Calm Calm - N/A   Mist
4:53 AM 48.9 °F 48.9 °F 100% 29.97 in 0.2 mi Calm Calm - N/A Fog Fog
5:53 AM 48.0 °F 46.9 °F 96% 29.99 in 0.2 mi Calm Calm - 0.01 in Fog Fog
6:01 AM 48.2 °F 46.4 °F 93% 29.99 in 0.2 mi Calm Calm - N/A Fog Fog
6:24 AM 48.2 °F 46.4 °F 93% 29.99 in 2.0 mi Calm Calm - N/A   Overcast
6:48 AM 46.4 °F 46.4 °F 100% 29.99 in 0.8 mi Calm Calm - N/A   Mist
6:49 AM 46.9 °F 46.9 °F 100% 30.00 in 0.8 mi Calm Calm - N/A   Mist
7:53 AM 48.0 °F 48.0 °F 100% 30.00 in 0.2 mi Calm Calm - N/A Fog Fog
8:24 AM 50.0 °F 48.2 °F 94% 30.00 in 1.2 mi Calm Calm - N/A   Overcast
8:35 AM 50.0 °F 50.0 °F 100% 30.00 in 0.5 mi Calm Calm - N/A Fog Fog
8:53 AM 50.0 °F 50.0 °F 100% 30.01 in 0.8 mi Calm Calm - N/A   Overcast
9:03 AM 51.8 °F 50.0 °F 94% 30.00 in 1.5 mi Calm Calm - N/A   Overcast
9:17 AM 51.8 °F 50.0 °F 94% 30.01 in 2.0 mi Calm Calm - N/A   Overcast
9:33 AM 51.8 °F 51.8 °F 100% 30.00 in 10.0 mi SSE 3.5 mph - N/A   Partly Cloudy
9:53 AM 53.1 °F 52.0 °F 96% 30.00 in 10.0 mi Calm Calm - N/A   Partly Cloudy
10:53 AM 61.0 °F 54.0 °F 78% 29.99 in 10.0 mi Calm Calm - N/A   Clear
11:53 AM 66.0 °F 54.0 °F 65% 29.96 in 10.0 mi Calm Calm - N/A   Clear
12:53 PM 72.0 °F 55.0 °F 55% 29.93 in 10.0 mi Calm Calm - N/A   Clear
1:53 PM 75.0 °F 54.0 °F 48% 29.90 in 10.0 mi ESE 3.5 mph - N/A   Clear
2:53 PM 77.0 °F 54.0 °F 45% 29.88 in 10.0 mi South 4.6 mph - N/A   Scattered Clouds
3:53 PM 77.0 °F 55.9 °F 48% 29.87 in 10.0 mi NW 8.1 mph - N/A   Scattered Clouds
4:53 PM 79.0 °F 54.0 °F 42% 29.87 in 10.0 mi West 10.4 mph 17.3 mph N/A   Clear
5:53 PM 77.0 °F 54.0 °F 45% 29.88 in 10.0 mi WNW 5.8 mph - N/A   Clear
6:53 PM 72.0 °F 55.0 °F 55% 29.89 in 10.0 mi Calm Calm - N/A   Clear
7:53 PM 66.9 °F 57.0 °F 70% 29.91 in 10.0 mi Calm Calm - N/A   Clear
8:53 PM 64.0 °F 59.0 °F 84% 29.92 in 10.0 mi Calm Calm - N/A   Clear
9:53 PM 61.0 °F 57.9 °F 90% 29.93 in 9.0 mi Calm Calm - N/A   Clear
10:53 PM 60.1 °F 57.9 °F 93% 29.93 in 8.0 mi Calm Calm - N/A   Clear
11:53 PM 57.9 °F 57.0 °F 97% 29.93 in 4.0 mi Calm Calm - N/A   Clear